TimeMDT,TemperatureF,Dew PointF,Humidity,Sea Level PressureIn,VisibilityMPH,Wind Direction,Wind SpeedMPH,Gust SpeedMPH,PrecipitationIn,Events,Conditions,WindDirDegrees,DateUTC
12:53 AM,37.0,19.0,48,29.95,10.0,ENE,8.1,-,N/A,,Clear,60,2012-10-20 06:53:00
1:53 AM,35.1,19.9,54,29.95,10.0,ENE,5.8,-,N/A,,Clear,60,2012-10-20 07:53:00
2:53 AM,33.1,18.0,54,29.95,10.0,East,5.8,-,N/A,,Clear,80,2012-10-20 08:53:00
4:53 AM,30.0,18.0,61,29.94,10.0,ENE,5.8,-,N/A,,Clear,70,2012-10-20 10:53:00
5:53 AM,28.9,18.0,64,29.96,10.0,East,3.5,-,N/A,,Clear,90,2012-10-20 11:53:00
6:53 AM,28.9,18.0,64,29.99,10.0,ENE,5.8,-,N/A,,Clear,60,2012-10-20 12:53:00
7:53 AM,28.9,18.0,64,30.03,10.0,Calm,Calm,-,N/A,,Clear,0,2012-10-20 13:53:00
8:53 AM,42.1,21.0,43,30.01,10.0,East,3.5,-,N/A,,Clear,80,2012-10-20 14:53:00
9:53 AM,51.1,21.0,31,29.97,10.0,Calm,Calm,-,N/A,,Clear,0,2012-10-20 15:53:00
10:53 AM,59.0,19.9,22,29.94,10.0,Calm,Calm,-,N/A,,Clear,0,2012-10-20 16:53:00
1:53 PM,72.0,15.1,11,29.83,10.0,SSW,15.0,-,N/A,,Clear,210,2012-10-20 19:53:00
2:53 PM,75.0,14.0,10,29.80,10.0,SSW,13.8,-,N/A,,Clear,200,2012-10-20 20:53:00
3:53 PM,73.9,12.9,10,29.80,10.0,SSW,10.4,-,N/A,,Clear,200,2012-10-20 21:53:00
4:53 PM,73.0,10.9,9,29.79,10.0,WNW,11.5,-,N/A,,Clear,290,2012-10-20 22:53:00
5:53 PM,70.0,12.0,11,29.80,10.0,WNW,8.1,-,N/A,,Clear,300,2012-10-20 23:53:00
6:53 PM,52.0,21.9,31,29.85,10.0,SE,4.6,-,N/A,,Clear,130,2012-10-21 00:53:00
7:53 PM,48.9,18.0,29,29.87,10.0,NNE,3.5,-,N/A,,Clear,30,2012-10-21 01:53:00
8:53 PM,45.0,17.1,33,29.85,10.0,ENE,6.9,-,N/A,,Clear,70,2012-10-21 02:53:00
9:53 PM,42.1,19.0,40,29.85,10.0,ESE,4.6,-,N/A,,Clear,110,2012-10-21 03:53:00
10:53 PM,39.0,17.1,41,29.84,10.0,East,5.8,-,N/A,,Clear,90,2012-10-21 04:53:00
11:53 PM,37.9,19.0,47,29.83,10.0,Calm,Calm,-,N/A,,Clear,0,2012-10-21 05:53:00